This demonstration page uses our WeatherBlox Daily Observations layout. Learn more.

Left ArrowRight Arrow

Hourly Observations for April 25, 2018

Temp ( °F °C ) Dew Point ( °F °C ) Humidity (%) Winds ( mph kmh ) Pressure ( in mb ) Visibility ( mi km ) Precip ( " mm )
12:23 am 00:23 Cloudy 54 12.2 52 11.1 93 93 NNW 5 7 29.94 1014 7 11 0.00 0.00
12:37 am 00:37 Cloudy 54 12.2 52 11.1 93 93 NNW 5 7 29.94 1014 8 13 0.00 0.00
12:53 am 00:53 Cloudy 54 12.2 52 11.1 93 93 NNW 3 6 29.91 1013 8 13 0.00 0.00
1:26 am 01:26 Cloudy 54 12.2 52 11.1 93 93 NW 7 11 29.94 1014 7 11 0.00 0.00
1:39 am 01:39 Cloudy 54 12.2 52 11.1 93 93 NNW 5 7 29.94 1014 7 11 0.00 0.00
1:48 am 01:48 Cloudy 54 12 52 11 94 94 NNW 6 9 29.94 1014 7 11 0.00 0.00
1:53 am 01:53 Cloudy 54 12.2 52 11.1 93 93 NW 6 9 29.91 1013 7 11 0.00 0.00
2:11 am 02:11 Cloudy 54 12.2 52 11.1 93 93 NW 6 9 29.94 1014 8 13 0.00 0.00
2:53 am 02:53 Cloudy 54 12.2 51 10.6 90 90 NW 6 9 29.91 1013 8 13 0.00 0.00
3:01 am 03:01 Cloudy 54 12.2 51 10.6 90 90 NW 6 9 29.94 1014 9 14 0.00 0.00
3:08 am 03:08 Cloudy 54 12.2 51 10.6 90 90 NW 6 9 29.94 1014 9 14 0.00 0.00
3:40 am 03:40 Cloudy 53 11.7 51 10.6 93 93 NW 5 7 29.94 1014 8 13 0.00 0.00
3:53 am 03:53 Cloudy 53 11.7 51 10.6 93 93 NNW 5 7 29.89 1012 8 13 0.00 0.00
4:10 am 04:10 Cloudy 53 11.7 51 10.6 93 93 WNW 6 9 29.91 1013 8 13 0.00 0.00
4:39 am 04:39 Cloudy 53 11.7 51 10.6 93 93 NW 8 13 29.91 1013 8 13 0.00 0.00
4:53 am 04:53 Cloudy 54 12.2 51 10.6 90 90 NNW 7 11 29.89 1012 9 14 0.00 0.00
5:16 am 05:16 Cloudy 54 12.2 51 10.6 90 90 NNW 5 7 29.88 1012 9 14 0.00 0.00
5:37 am 05:37 Cloudy 54 12.2 51 10.6 90 90 NNW 5 7 29.88 1012 8 13 0.00 0.00
5:53 am 05:53 Cloudy 54 12.2 51 10.6 90 90 NNW 6 9 29.89 1012 9 14 0.00 0.00
6:28 am 06:28 Cloudy 53 11.7 50 10 89 89 NNW 13 20 29.94 1014 10 16 0.00 0.00
6:53 am 06:53 Cloudy 53 11.7 50 10 89 89 NNW 7 11 29.91 1013 10 16 0.00 0.00
7:02 am 07:02 Cloudy 53 11.7 50 10 89 89 NNW 10 17 29.94 1014 10 16 0.00 0.00
7:53 am 07:53 Cloudy 53 11.7 50 10 89 89 NNW 9 15 29.93 1014 8 13 0.00 0.00
8:53 am 08:53 Cloudy 54 12.2 50 10 87 87 NW 8 13 29.95 1014 10 16 0.00 0.00
9:53 am 09:53 Cloudy with Light Rain 54 12.2 51 10.6 90 90 NNW 10 17 29.97 1015 5 8 0.00 0.03
10:05 am 10:05 Cloudy with Mist and Fog 54 12.2 52 11.1 93 93 NW 9 15 30.00 1016 4 6 0.00 0.03
10:21 am 10:21 Cloudy with Mist and Fog 54 12.2 52 11.1 93 93 NW 7 11 30.00 1016 4 6 0.00 0.03
10:35 am 10:35 Cloudy 55 12.8 52 11.1 90 90 WNW 8 13 30.00 1016 10 16 0.00 0.03
10:42 am 10:42 Cloudy 55 12.8 52 11.1 90 90 NW 10 17 30.00 1016 10 16 0.00 0.03
10:53 am 10:53 Cloudy 56 13.3 52 11.1 87 87 NNW 9 15 29.97 1015 10 16 0.00 0.03
11:35 am 11:35 Cloudy 57 13.9 51 10.6 81 81 NNW 12 19 29.97 1015 10 16 0.00 0.00
11:53 am 11:53 Cloudy 58 14.4 52 11.1 81 81 NNW 10 17 29.97 1015 10 16 0.00 0.00
12:41 pm 12:41 Cloudy 60 15.6 52 11.1 75 75 N 10 17 29.97 1015 10 16 0.00 0.00
12:53 pm 12:53 Cloudy 60 15.6 51 10.6 72 72 NNW 10 17 29.96 1014 10 16 0.00 0.00
1:02 pm 13:02 Cloudy 60 15.6 51 10.6 72 72 NNW 7 11 29.97 1015 10 16 0.00 0.00
1:53 pm 13:53 Cloudy 62 16.7 51 10.6 67 67 NNW 10 17 29.95 1014 10 16 0.00 0.00
2:53 pm 14:53 Cloudy 62 16.7 50 10 65 65 NNE 12 19 29.95 1014 10 16 0.00 0.00
3:53 pm 15:53 Mostly Cloudy 65 18.3 48 8.9 54 54 N 7 11 29.94 1014 10 16 0.00 0.00
4:53 pm 16:53 Mostly Cloudy 63 17.2 47 8.3 56 56 NNW 7 11 29.93 1014 10 16 0.00 0.00
5:53 pm 17:53 Partly Cloudy 65 18.3 47 8.3 52 52 N 9 15 29.92 1013 10 16 0.00 0.00
6:53 pm 18:53 Partly Cloudy 64 17.8 43 6.1 46 46 NNW 9 15 29.92 1013 10 16 0.00 0.00
7:53 pm 19:53 Sunny 61 16.1 44 6.7 54 54 NNW 5 7 29.92 1013 10 16 0.00 0.00
8:53 pm 20:53 Clear 53 11.7 45 7.2 74 74 Calm 29.93 1014 10 16 0.00 0.00
9:53 pm 21:53 Clear 49 9.4 46 7.8 90 90 Calm 29.94 1014 10 16 0.00 0.00
10:53 pm 22:53 Clear 53 11.7 40 4.4 61 61 NNW 8 13 29.94 1014 10 16 0.00 0.00
11:53 pm 23:53 Clear 52 11.1 38 3.3 59 59 NNW 8 13 29.94 1014 10 16 0.00 0.00

Powered by AerisWeather